sat.trackr.live / text

‹ back to catalog

GAOFEN-11 04

NORAD 54818 · 2022-176A

PAYLOAD ACTIVE UNKNOWN

§ Identity

Operator
Country
PRC
Launch date
2022-12-27
Launch site
TAISC
Launch vehicle
Mass (kg)
RCS (m²)

External: N2YO · Heavens-Above · Gunter

§ Orbital elements

Epoch: 2026-05-25T04:42:54.244224Z

Period
94.52 min
Inclination
97.4196°
Eccentricity
0.0007651
Mean motion
15.23561723 rev/d
Perigee alt
489.8 km
Apogee alt
500.4 km
Semi-major
6,873.2 km
B*
2.2889e-4
RAAN
278.6546°
Arg perigee
51.1720°
Mean anomaly
309.0199°
Rev number
18,975

§ Raw data

GAOFEN-11 041 54818U 22176A   26145.19646116  .00005405  00000+0  22889-3 0  99912 54818  97.4196 278.6546 0007651  51.1720 309.0199 15.23561723189753

JSON: /api/v1/satellites/54818 · /tle

For live sub-satellite position, see the globe view (requires WebGL).

§ Visibility from observer

Set your observer location to see the next 7 days of passes ≥ 10°. The values pass through the URL so the page stays shareable.

No JS? Fill the form by hand. The geolocation button needs JavaScript.